Time,TemperatureF,DewpointF,PressureIn,WindDirection,WindDirectionDegrees,WindSpeedMPH,WindSpeedGustMPH,Humidity,HourlyPrecipIn,Conditions,Clouds,dailyrainin,SolarRadiationWatts/m^2,SoftwareType,DateUTC
2013-06-09 00:02:00,68.7,57.3,29.83,SSE,157,6.0,14.0,67,0.00,,SCT090,0.00,0.00,VWS V14.01,2013-06-09 05:02:00,
2013-06-09 00:07:00,68.5,57.1,29.83,SSE,153,16.0,16.0,67,0.00,,SCT090,0.00,0.00,VWS V14.01,2013-06-09 05:07:00,
2013-06-09 00:12:00,68.5,57.1,29.83,SE,131,5.0,13.0,67,0.00,,OVC075,0.00,0.00,VWS V14.01,2013-06-09 05:12:00,
2013-06-09 00:17:00,68.4,57.0,29.83,SSE,155,4.0,12.0,67,0.00,,OVC075,0.00,0.00,VWS V14.01,2013-06-09 05:17:00,
2013-06-09 00:22:00,68.4,57.0,29.83,SE,135,5.0,12.0,67,0.00,,OVC075,0.00,0.00,VWS V14.01,2013-06-09 05:22:00,
2013-06-09 00:27:00,68.4,57.4,29.82,South,185,3.0,11.0,68,0.00,,OVC075,0.00,0.00,VWS V14.01,2013-06-09 05:27:00,
2013-06-09 00:32:00,68.3,57.3,29.82,SE,141,6.0,12.0,68,0.00,,OVC075,0.00,0.00,VWS V14.01,2013-06-09 05:32:00,
2013-06-09 00:37:00,68.3,56.9,29.82,SSE,167,10.0,16.0,67,0.00,,OVC075,0.00,0.00,VWS V14.01,2013-06-09 05:37:00,
2013-06-09 00:42:00,68.3,57.3,29.83,South,170,7.0,11.0,68,0.00,,OVC075,0.00,0.00,VWS V14.01,2013-06-09 05:42:00,
2013-06-09 00:47:00,68.2,57.2,29.83,South,179,6.0,14.0,68,0.00,,OVC075,0.00,0.00,VWS V14.01,2013-06-09 05:47:00,
2013-06-09 00:52:00,68.2,57.7,29.83,SSE,160,15.0,19.0,69,0.00,,OVC075,0.00,0.00,VWS V14.01,2013-06-09 05:52:00,
2013-06-09 00:57:00,67.8,57.7,29.83,South,182,9.0,13.0,70,0.00,,OVC075,0.00,0.00,VWS V14.01,2013-06-09 05:57:00,
2013-06-09 01:02:00,67.6,58.3,29.84,South,186,12.0,18.0,72,0.00,,OVC075,0.00,0.00,VWS V14.01,2013-06-09 06:02:00,
2013-06-09 01:07:00,67.4,58.1,29.83,South,179,12.0,13.0,72,0.00,,OVC075,0.00,0.00,VWS V14.01,2013-06-09 06:07:00,
2013-06-09 01:12:00,67.0,58.5,29.83,SSW,199,12.0,17.0,74,0.00,,SCT080,0.00,0.00,VWS V14.01,2013-06-09 06:12:00,
2013-06-09 01:17:00,66.6,58.8,29.84,SSW,195,15.0,17.0,76,0.00,,SCT080,0.00,0.00,VWS V14.01,2013-06-09 06:17:00,
2013-06-09 01:22:00,66.6,58.4,29.84,South,179,12.0,20.0,75,0.00,,SCT080,0.00,0.00,VWS V14.01,2013-06-09 06:22:00,
2013-06-09 01:27:00,66.5,58.7,29.83,SSW,200,19.0,20.0,76,0.00,,SCT080,0.00,0.00,VWS V14.01,2013-06-09 06:27:00,
2013-06-09 01:32:00,65.9,58.9,29.83,South,175,11.0,19.0,78,0.00,,SCT080,0.00,0.00,VWS V14.01,2013-06-09 06:32:00,
2013-06-09 01:37:00,65.3,59.0,29.83,South,184,15.0,23.0,80,0.01,,SCT080,0.01,0.00,VWS V14.01,2013-06-09 06:37:00,
2013-06-09 01:42:00,64.9,59.3,29.83,SSW,199,9.0,15.0,82,0.01,,SCT080,0.01,0.00,VWS V14.01,2013-06-09 06:42:00,
2013-06-09 01:47:00,64.6,59.0,29.83,South,180,17.0,17.0,82,0.01,,SCT080,0.01,0.00,VWS V14.01,2013-06-09 06:47:00,
2013-06-09 01:52:00,64.5,59.2,29.83,South,175,14.0,17.0,83,0.01,,SCT080,0.01,0.00,VWS V14.01,2013-06-09 06:52:00,
2013-06-09 01:57:00,64.3,59.4,29.83,SSW,200,13.0,21.0,84,0.01,,SCT080,0.01,0.00,VWS V14.01,2013-06-09 06:57:00,
2013-06-09 02:02:00,64.2,59.6,29.83,South,180,12.0,13.0,85,0.01,,-RA,0.01,0.00,VWS V14.01,2013-06-09 07:02:00,
2013-06-09 02:07:00,64.1,59.5,29.83,South,183,13.0,15.0,85,0.01,,-RA,0.01,0.00,VWS V14.01,2013-06-09 07:07:00,
2013-06-09 02:12:00,64.1,59.8,29.82,South,170,11.0,15.0,86,0.01,,-RA,0.01,0.00,VWS V14.01,2013-06-09 07:12:00,
2013-06-09 02:17:00,64.0,59.7,29.82,South,182,11.0,19.0,86,0.01,,-RA,0.01,0.00,VWS V14.01,2013-06-09 07:17:00,
2013-06-09 02:22:00,64.0,60.1,29.82,South,190,9.0,13.0,87,0.01,,-RA,0.01,0.00,VWS V14.01,2013-06-09 07:22:00,
2013-06-09 02:27:00,63.9,60.0,29.82,SW,218,10.0,12.0,87,0.01,,-RA,0.01,0.00,VWS V14.01,2013-06-09 07:27:00,
2013-06-09 02:32:00,63.8,60.2,29.82,SSW,201,10.0,14.0,88,0.01,,-RA,0.01,0.00,VWS V14.01,2013-06-09 07:32:00,
2013-06-09 02:37:00,63.7,60.1,29.82,SSW,204,6.0,13.0,88,0.00,,-RA,0.01,0.00,VWS V14.01,2013-06-09 07:37:00,
2013-06-09 02:42:00,63.6,60.0,29.82,SSW,195,6.0,11.0,88,0.00,,-RA,0.01,0.00,VWS V14.01,2013-06-09 07:42:00,
2013-06-09 02:47:00,63.4,60.1,29.82,SSW,207,8.0,12.0,89,0.00,,-RA,0.01,0.00,VWS V14.01,2013-06-09 07:47:00,
2013-06-09 02:52:00,63.3,60.3,29.82,SSW,199,9.0,11.0,90,0.00,,-RA,0.01,0.00,VWS V14.01,2013-06-09 07:52:00,
2013-06-09 02:57:00,63.2,60.2,29.82,SW,217,6.0,12.0,90,0.00,,-RA,0.01,0.00,VWS V14.01,2013-06-09 07:57:00,
2013-06-09 03:02:00,63.2,60.2,29.82,SSW,207,7.0,11.0,90,0.00,,-RA,0.01,0.00,VWS V14.01,2013-06-09 08:02:00,
2013-06-09 03:07:00,63.1,60.1,29.82,SW,217,6.0,9.0,90,0.00,,-RA,0.01,0.00,VWS V14.01,2013-06-09 08:07:00,
2013-06-09 03:12:00,63.0,60.3,29.82,SSW,202,6.0,8.0,91,0.00,,SCT090,0.01,0.00,VWS V14.01,2013-06-09 08:12:00,
2013-06-09 03:17:00,62.9,60.2,29.82,SSW,205,6.0,7.0,91,0.00,,SCT090,0.01,0.00,VWS V14.01,2013-06-09 08:17:00,
2013-06-09 03:22:00,62.9,60.2,29.82,SSW,192,6.0,6.0,91,0.00,,SCT090,0.01,0.00,VWS V14.01,2013-06-09 08:22:00,
2013-06-09 03:27:00,62.9,60.2,29.81,South,171,2.0,5.0,91,0.00,,SCT090,0.01,0.00,VWS V14.01,2013-06-09 08:27:00,
2013-06-09 03:32:00,62.9,60.5,29.81,SSW,195,5.0,7.0,92,0.00,,SCT090,0.01,0.00,VWS V14.01,2013-06-09 08:32:00,
2013-06-09 03:37:00,62.9,60.5,29.81,SSW,205,6.0,7.0,92,0.00,,SCT090,0.01,0.00,VWS V14.01,2013-06-09 08:37:00,
2013-06-09 03:42:00,63.0,60.6,29.81,South,176,7.0,9.0,92,0.00,,SCT090,0.01,0.00,VWS V14.01,2013-06-09 08:42:00,
2013-06-09 03:47:00,63.0,60.6,29.81,South,187,3.0,6.0,92,0.00,,SCT090,0.01,0.00,VWS V14.01,2013-06-09 08:47:00,
2013-06-09 03:52:00,63.0,60.6,29.81,South,174,4.0,7.0,92,0.00,,SCT090,0.01,0.00,VWS V14.01,2013-06-09 08:52:00,
2013-06-09 03:57:00,63.0,60.6,29.81,South,183,5.0,6.0,92,0.00,,SCT090,0.01,0.00,VWS V14.01,2013-06-09 08:57:00,
2013-06-09 04:02:00,63.0,60.6,29.81,South,179,8.0,10.0,92,0.00,,SCT090,0.01,0.00,VWS V14.01,2013-06-09 09:02:00,
2013-06-09 04:07:00,63.1,60.7,29.81,SSW,197,6.0,12.0,92,0.00,,SCT090,0.01,0.00,VWS V14.01,2013-06-09 09:07:00,
2013-06-09 04:12:00,63.2,60.8,29.81,SSW,193,7.0,10.0,92,0.00,,CLR,0.01,0.00,VWS V14.01,2013-06-09 09:12:00,
2013-06-09 04:18:00,63.2,60.8,29.81,SSW,201,5.0,7.0,92,0.00,,CLR,0.01,0.00,VWS V14.01,2013-06-09 09:18:00,
2013-06-09 04:23:00,63.1,60.7,29.81,South,173,3.0,10.0,92,0.00,,CLR,0.01,0.00,VWS V14.01,2013-06-09 09:23:00,
2013-06-09 04:28:00,63.1,60.7,29.81,South,182,8.0,10.0,92,0.01,,CLR,0.02,0.00,VWS V14.01,2013-06-09 09:28:00,
2013-06-09 04:33:00,63.1,60.7,29.80,South,181,8.0,12.0,92,0.01,,CLR,0.02,0.00,VWS V14.01,2013-06-09 09:33:00,
2013-06-09 04:38:00,63.0,61.0,29.80,South,184,8.0,11.0,93,0.01,,CLR,0.02,0.00,VWS V14.01,2013-06-09 09:38:00,
2013-06-09 04:43:00,63.0,60.6,29.81,South,191,7.0,9.0,92,0.01,,CLR,0.02,0.00,VWS V14.01,2013-06-09 09:43:00,
2013-06-09 04:48:00,63.0,60.6,29.81,South,176,6.0,10.0,92,0.01,,CLR,0.02,0.00,VWS V14.01,2013-06-09 09:48:00,
2013-06-09 04:53:00,63.0,61.0,29.81,South,186,6.0,11.0,93,0.01,,CLR,0.02,0.00,VWS V14.01,2013-06-09 09:53:00,
2013-06-09 04:58:00,63.1,61.0,29.81,South,174,6.0,11.0,93,0.01,,CLR,0.02,0.00,VWS V14.01,2013-06-09 09:58:00,
2013-06-09 05:03:00,63.1,61.0,29.81,SSW,192,10.0,12.0,93,0.01,,CLR,0.02,0.00,VWS V14.01,2013-06-09 10:03:00,
2013-06-09 05:08:00,63.1,61.0,29.81,South,171,5.0,11.0,93,0.01,,CLR,0.02,0.00,VWS V14.01,2013-06-09 10:08:00,
2013-06-09 05:13:00,63.0,61.0,29.81,South,174,9.0,10.0,93,0.01,,,0.02,0.00,VWS V14.01,2013-06-09 10:13:00,
2013-06-09 05:18:00,62.9,60.8,29.80,SSW,207,9.0,10.0,93,0.01,,,0.02,0.00,VWS V14.01,2013-06-09 10:18:00,
2013-06-09 05:23:00,62.9,60.8,29.80,South,174,8.0,10.0,93,0.01,,,0.02,0.00,VWS V14.01,2013-06-09 10:23:00,
2013-06-09 05:28:00,63.0,61.0,29.81,SSW,210,5.0,15.0,93,0.01,,,0.02,0.00,VWS V14.01,2013-06-09 10:28:00,
2013-06-09 05:33:00,63.0,61.0,29.81,South,190,9.0,10.0,93,0.00,,,0.02,0.00,VWS V14.01,2013-06-09 10:33:00,
2013-06-09 05:38:00,62.9,60.8,29.80,SSW,203,11.0,12.0,93,0.01,,,0.03,0.00,VWS V14.01,2013-06-09 10:38:00,
2013-06-09 05:43:00,62.8,60.8,29.81,SSW,197,9.0,11.0,93,0.01,,,0.03,0.00,VWS V14.01,2013-06-09 10:43:00,
2013-06-09 05:48:00,62.7,60.7,29.80,SSW,197,8.0,11.0,93,0.01,,,0.03,0.00,VWS V14.01,2013-06-09 10:48:00,
2013-06-09 05:53:00,62.6,60.5,29.80,SSW,193,7.0,7.0,93,0.01,,,0.03,0.00,VWS V14.01,2013-06-09 10:53:00,
2013-06-09 05:58:00,62.6,60.5,29.80,SSW,195,7.0,10.0,93,0.01,,,0.03,0.00,VWS V14.01,2013-06-09 10:58:00,
2013-06-09 06:03:00,62.6,60.5,29.80,SSW,199,7.0,10.0,93,0.01,,,0.03,0.00,VWS V14.01,2013-06-09 11:03:00,
2013-06-09 06:08:00,62.6,60.5,29.80,South,189,11.0,13.0,93,0.01,,,0.03,12.00,VWS V14.01,2013-06-09 11:08:00,
2013-06-09 06:13:00,62.7,60.7,29.81,South,180,11.0,11.0,93,0.01,,,0.03,23.00,VWS V14.01,2013-06-09 11:13:00,
2013-06-09 06:18:00,62.7,60.7,29.81,SSW,194,6.0,9.0,93,0.01,,,0.03,23.00,VWS V14.01,2013-06-09 11:18:00,
2013-06-09 06:23:00,62.8,60.8,29.81,SSW,195,6.0,9.0,93,0.01,,,0.03,14.00,VWS V14.01,2013-06-09 11:23:00,
2013-06-09 06:28:00,62.8,60.8,29.81,SSW,193,5.0,6.0,93,0.01,,,0.03,16.00,VWS V14.01,2013-06-09 11:28:00,
2013-06-09 06:33:00,62.7,60.7,29.81,SSE,157,7.0,9.0,93,0.01,,,0.03,12.00,VWS V14.01,2013-06-09 11:33:00,
2013-06-09 06:38:00,62.7,60.7,29.81,South,178,7.0,8.0,93,0.01,,,0.03,14.00,VWS V14.01,2013-06-09 11:38:00,
2013-06-09 06:43:00,62.7,60.7,29.81,SSW,192,10.0,10.0,93,0.00,,,0.03,14.00,VWS V14.01,2013-06-09 11:43:00,
2013-06-09 06:48:00,62.7,60.7,29.81,South,172,9.0,10.0,93,0.00,,,0.03,14.00,VWS V14.01,2013-06-09 11:48:00,
2013-06-09 06:53:00,62.7,60.7,29.80,SSW,196,6.0,10.0,93,0.00,,,0.03,19.00,VWS V14.01,2013-06-09 11:53:00,
2013-06-09 06:58:00,62.7,60.7,29.80,South,185,9.0,13.0,93,0.00,,,0.03,23.00,VWS V14.01,2013-06-09 11:58:00,
2013-06-09 07:03:00,62.7,60.7,29.80,SSW,196,7.0,10.0,93,0.00,,,0.03,23.00,VWS V14.01,2013-06-09 12:03:00,
2013-06-09 07:08:00,62.7,60.7,29.80,SSW,201,4.0,8.0,93,0.00,,,0.03,25.00,VWS V14.01,2013-06-09 12:08:00,
2013-06-09 07:13:00,62.7,60.7,29.80,SSW,199,8.0,9.0,93,0.00,,,0.03,23.00,VWS V14.01,2013-06-09 12:13:00,
2013-06-09 07:18:00,62.7,60.7,29.80,SSW,206,6.0,11.0,93,0.00,,,0.03,18.00,VWS V14.01,2013-06-09 12:18:00,
2013-06-09 07:23:00,62.7,60.7,29.80,SSW,199,9.0,9.0,93,0.00,,,0.03,12.00,VWS V14.01,2013-06-09 12:23:00,
2013-06-09 07:28:00,62.7,60.7,29.80,SSW,212,7.0,12.0,93,0.00,,,0.03,9.00,VWS V14.01,2013-06-09 12:28:00,
2013-06-09 07:33:00,62.7,60.7,29.80,SSW,195,9.0,11.0,93,0.00,,SCT095,0.03,9.00,VWS V14.01,2013-06-09 12:33:00,
2013-06-09 07:38:00,62.7,60.7,29.80,SSW,195,5.0,11.0,93,0.00,,SCT095,0.03,18.00,VWS V14.01,2013-06-09 12:38:00,
2013-06-09 07:43:00,62.7,60.7,29.81,SSW,212,9.0,12.0,93,0.00,,SCT095,0.03,12.00,VWS V14.01,2013-06-09 12:43:00,
2013-06-09 07:48:00,62.7,60.7,29.81,SSW,196,9.0,10.0,93,0.00,,SCT095,0.03,12.00,VWS V14.01,2013-06-09 12:48:00,
2013-06-09 07:53:00,62.7,60.7,29.81,SSW,194,6.0,11.0,93,0.00,,SCT095,0.03,16.00,VWS V14.01,2013-06-09 12:53:00,
2013-06-09 07:58:00,62.7,60.7,29.81,SW,221,9.0,11.0,93,0.00,,SCT095,0.03,33.00,VWS V14.01,2013-06-09 12:58:00,
2013-06-09 08:03:00,62.8,60.8,29.80,SSW,192,7.0,11.0,93,0.00,,SCT095,0.03,46.00,VWS V14.01,2013-06-09 13:03:00,
2013-06-09 08:08:00,62.9,60.8,29.80,SSW,207,8.0,11.0,93,0.00,,SCT095,0.03,84.00,VWS V14.01,2013-06-09 13:08:00,
2013-06-09 08:13:00,63.1,61.0,29.80,SSW,201,6.0,10.0,93,0.00,,OVC060,0.03,86.00,VWS V14.01,2013-06-09 13:13:00,
2013-06-09 08:18:00,63.2,61.2,29.81,SSW,208,6.0,11.0,93,0.00,,OVC060,0.03,63.00,VWS V14.01,2013-06-09 13:18:00,
2013-06-09 08:23:00,63.1,60.7,29.81,South,185,11.0,12.0,92,0.00,,OVC060,0.03,79.00,VWS V14.01,2013-06-09 13:23:00,
2013-06-09 08:28:00,63.3,60.9,29.80,SSW,207,6.0,8.0,92,0.00,,OVC060,0.03,128.00,VWS V14.01,2013-06-09 13:28:00,
2013-06-09 08:33:00,63.7,61.3,29.80,South,178,9.0,10.0,92,0.00,,OVC060,0.03,225.00,VWS V14.01,2013-06-09 13:33:00,
2013-06-09 08:38:00,65.0,62.6,29.80,SSW,199,11.0,14.0,92,0.00,,OVC060,0.03,246.00,VWS V14.01,2013-06-09 13:38:00,
2013-06-09 08:43:00,64.8,61.8,29.80,SSW,200,11.0,14.0,90,0.00,,OVC060,0.03,165.00,VWS V14.01,2013-06-09 13:43:00,
2013-06-09 08:48:00,64.5,61.2,29.80,SSW,193,10.0,13.0,89,0.00,,OVC060,0.03,120.00,VWS V14.01,2013-06-09 13:48:00,
2013-06-09 08:53:00,64.4,61.4,29.80,South,175,4.0,7.0,90,0.00,,OVC060,0.03,218.00,VWS V14.01,2013-06-09 13:53:00,
2013-06-09 08:58:00,65.1,62.1,29.80,South,179,5.0,7.0,90,0.00,,OVC060,0.03,236.00,VWS V14.01,2013-06-09 13:58:00,
2013-06-09 09:03:00,65.2,61.9,29.80,South,175,6.0,7.0,89,0.00,,OVC060,0.03,207.00,VWS V14.01,2013-06-09 14:03:00,
2013-06-09 09:08:00,65.3,62.0,29.80,SSW,210,7.0,10.0,89,0.00,,OVC060,0.03,322.00,VWS V14.01,2013-06-09 14:08:00,
2013-06-09 09:13:00,65.9,62.6,29.80,South,188,10.0,10.0,89,0.00,,SCT070,0.03,385.00,VWS V14.01,2013-06-09 14:13:00,
2013-06-09 09:18:00,66.5,63.2,29.80,South,185,7.0,10.0,89,0.00,,SCT070,0.03,308.00,VWS V14.01,2013-06-09 14:18:00,
2013-06-09 09:23:00,67.5,63.8,29.80,South,189,8.0,10.0,88,0.00,,SCT070,0.03,547.00,VWS V14.01,2013-06-09 14:23:00,
2013-06-09 09:28:00,68.3,63.3,29.80,SW,224,15.0,17.0,84,0.00,,SCT070,0.03,517.00,VWS V14.01,2013-06-09 14:28:00,
2013-06-09 09:33:00,68.8,63.8,29.80,SSW,210,12.0,13.0,84,0.00,,SCT070,0.03,701.00,VWS V14.01,2013-06-09 14:33:00,
2013-06-09 09:38:00,69.2,63.1,29.80,South,189,9.0,16.0,81,0.00,,SCT070,0.03,475.00,VWS V14.01,2013-06-09 14:38:00,
2013-06-09 09:43:00,69.1,63.0,29.80,SW,216,12.0,12.0,81,0.00,,SCT070,0.03,278.00,VWS V14.01,2013-06-09 14:43:00,
2013-06-09 09:48:00,68.5,62.5,29.80,SSW,198,13.0,15.0,81,0.00,,SCT070,0.03,315.00,VWS V14.01,2013-06-09 14:48:00,
2013-06-09 09:53:00,68.5,62.8,29.79,SW,214,15.0,15.0,82,0.00,,SCT070,0.03,424.00,VWS V14.01,2013-06-09 14:53:00,
2013-06-09 09:58:00,68.9,63.2,29.79,SSW,199,11.0,18.0,82,0.00,,SCT070,0.03,457.00,VWS V14.01,2013-06-09 14:58:00,
2013-06-09 10:03:00,69.1,63.0,29.80,SSW,209,14.0,16.0,81,0.00,,SCT070,0.03,341.00,VWS V14.01,2013-06-09 15:03:00,
2013-06-09 10:08:00,69.0,62.9,29.79,SSW,194,9.0,12.0,81,0.00,,SCT070,0.03,394.00,VWS V14.01,2013-06-09 15:08:00,
2013-06-09 10:13:00,69.2,62.8,29.79,South,179,11.0,12.0,80,0.00,,CLR,0.03,497.00,VWS V14.01,2013-06-09 15:13:00,
2013-06-09 10:18:00,71.0,64.9,29.79,South,178,13.0,15.0,81,0.00,,CLR,0.03,937.00,VWS V14.01,2013-06-09 15:18:00,
2013-06-09 10:23:00,70.9,64.8,29.79,South,185,10.0,13.0,81,0.00,,CLR,0.03,907.00,VWS V14.01,2013-06-09 15:23:00,
2013-06-09 10:29:00,71.5,64.3,29.79,South,182,10.0,14.0,78,0.00,,CLR,0.03,907.00,VWS V14.01,2013-06-09 15:29:00,
2013-06-09 10:34:00,71.7,64.8,29.78,South,172,10.0,15.0,79,0.00,,CLR,0.03,1046.00,VWS V14.01,2013-06-09 15:34:00,
2013-06-09 10:39:00,71.6,64.4,29.78,South,183,9.0,12.0,78,0.00,,CLR,0.03,374.00,VWS V14.01,2013-06-09 15:39:00,
2013-06-09 10:44:00,70.4,63.6,29.78,SSW,210,12.0,13.0,79,0.00,,CLR,0.03,156.00,VWS V14.01,2013-06-09 15:44:00,
2013-06-09 10:49:00,69.3,62.5,29.78,SSW,204,10.0,19.0,79,0.00,,CLR,0.03,211.00,VWS V14.01,2013-06-09 15:49:00,
2013-06-09 10:54:00,69.5,62.3,29.79,SW,226,11.0,18.0,78,0.00,,CLR,0.03,330.00,VWS V14.01,2013-06-09 15:54:00,
2013-06-09 10:59:00,69.9,62.7,29.79,SSW,196,11.0,17.0,78,0.00,,CLR,0.03,557.00,VWS V14.01,2013-06-09 15:59:00,
2013-06-09 11:04:00,70.7,63.1,29.79,SSW,203,14.0,17.0,77,0.00,,CLR,0.03,438.00,VWS V14.01,2013-06-09 16:04:00,
2013-06-09 11:09:00,70.6,63.0,29.79,SW,218,17.0,21.0,77,0.00,,CLR,0.03,496.00,VWS V14.01,2013-06-09 16:09:00,
2013-06-09 11:14:00,71.2,63.6,29.78,SSW,197,14.0,18.0,77,0.00,,SCT038,0.03,406.00,VWS V14.01,2013-06-09 16:14:00,
2013-06-09 11:19:00,70.4,62.8,29.79,SW,226,13.0,17.0,77,0.00,,SCT038,0.03,329.00,VWS V14.01,2013-06-09 16:19:00,
2013-06-09 11:24:00,69.8,62.6,29.79,SW,221,18.0,19.0,78,0.00,,SCT038,0.03,269.00,VWS V14.01,2013-06-09 16:24:00,
2013-06-09 11:29:00,69.4,63.0,29.78,SSW,192,10.0,16.0,80,0.00,,SCT038,0.03,306.00,VWS V14.01,2013-06-09 16:29:00,
2013-06-09 11:34:00,69.5,63.1,29.79,SSW,196,15.0,17.0,80,0.00,,SCT038,0.03,383.00,VWS V14.01,2013-06-09 16:34:00,
2013-06-09 11:39:00,70.0,63.5,29.78,SSW,209,14.0,19.0,80,0.00,,SCT038,0.03,434.00,VWS V14.01,2013-06-09 16:39:00,
2013-06-09 11:44:00,71.0,64.2,29.78,SW,215,12.0,13.0,79,0.00,,SCT038,0.03,1123.00,VWS V14.01,2013-06-09 16:44:00,
2013-06-09 11:49:00,70.1,62.9,29.79,SSW,206,13.0,17.0,78,0.00,,SCT038,0.03,301.00,VWS V14.01,2013-06-09 16:49:00,
2013-06-09 11:54:00,69.8,63.7,29.78,South,182,12.0,15.0,81,0.00,,BKN041,0.03,378.00,VWS V14.01,2013-06-09 16:54:00,
2013-06-09 11:59:00,71.3,65.2,29.78,SSW,213,9.0,16.0,81,0.00,,BKN041,0.03,1014.00,VWS V14.01,2013-06-09 16:59:00,
2013-06-09 12:04:00,71.5,63.9,29.78,SSW,212,12.0,14.0,77,0.00,,BKN041,0.03,253.00,VWS V14.01,2013-06-09 17:04:00,
2013-06-09 12:09:00,70.3,63.5,29.78,WSW,247,10.0,14.0,79,0.00,,BKN041,0.03,230.00,VWS V14.01,2013-06-09 17:09:00,
2013-06-09 12:14:00,69.8,63.7,29.78,SSW,212,9.0,12.0,81,0.00,,BKN041,0.03,272.00,VWS V14.01,2013-06-09 17:14:00,
2013-06-09 12:19:00,69.6,63.5,29.79,SW,228,8.0,10.0,81,0.00,,BKN041,0.03,197.00,VWS V14.01,2013-06-09 17:19:00,
2013-06-09 12:24:00,70.5,64.4,29.79,SSW,205,9.0,10.0,81,0.00,,BKN041,0.03,904.00,VWS V14.01,2013-06-09 17:24:00,
2013-06-09 12:29:00,70.8,63.6,29.78,South,188,7.0,12.0,78,0.00,,BKN041,0.03,218.00,VWS V14.01,2013-06-09 17:29:00,
2013-06-09 12:34:00,71.6,65.5,29.78,SSW,199,12.0,13.0,81,0.00,,BKN041,0.03,1034.00,VWS V14.01,2013-06-09 17:34:00,
2013-06-09 12:39:00,73.6,66.3,29.78,South,183,11.0,12.0,78,0.00,,BKN041,0.03,1179.00,VWS V14.01,2013-06-09 17:39:00,
2013-06-09 12:44:00,72.4,65.5,29.78,SSW,199,14.0,16.0,79,0.00,,BKN041,0.03,1127.00,VWS V14.01,2013-06-09 17:44:00,
2013-06-09 12:49:00,72.7,64.7,29.78,SSW,202,14.0,15.0,76,0.00,,BKN041,0.03,271.00,VWS V14.01,2013-06-09 17:49:00,
2013-06-09 12:54:00,71.3,64.5,29.78,South,182,9.0,13.0,79,0.00,,BKN041,0.03,1187.00,VWS V14.01,2013-06-09 17:54:00,
2013-06-09 12:59:00,72.8,65.6,29.78,SSW,210,14.0,16.0,78,0.00,,BKN041,0.03,1190.00,VWS V14.01,2013-06-09 17:59:00,
2013-06-09 13:04:00,71.5,63.5,29.77,SSW,202,10.0,15.0,76,0.00,,BKN041,0.03,315.00,VWS V14.01,2013-06-09 18:04:00,
2013-06-09 13:09:00,73.2,65.9,29.77,South,190,13.0,15.0,78,0.00,,BKN041,0.03,1125.00,VWS V14.01,2013-06-09 18:09:00,
2013-06-09 13:14:00,74.5,66.1,29.77,SSW,195,7.0,14.0,75,0.00,,SCT040,0.03,1179.00,VWS V14.01,2013-06-09 18:14:00,
2013-06-09 13:19:00,73.0,64.2,29.76,South,182,10.0,11.0,74,0.00,,SCT040,0.03,390.00,VWS V14.01,2013-06-09 18:19:00,
2013-06-09 13:24:00,72.7,65.4,29.76,SSE,154,8.0,11.0,78,0.00,,SCT040,0.03,970.00,VWS V14.01,2013-06-09 18:24:00,
2013-06-09 13:29:00,74.1,66.4,29.76,South,186,9.0,14.0,77,0.00,,SCT040,0.03,1157.00,VWS V14.01,2013-06-09 18:29:00,
2013-06-09 13:34:00,74.8,66.3,29.75,SSE,164,9.0,13.0,75,0.00,,SCT040,0.03,1118.00,VWS V14.01,2013-06-09 18:34:00,
2013-06-09 13:39:00,74.9,66.4,29.75,South,172,6.0,17.0,75,0.00,,SCT040,0.03,1067.00,VWS V14.01,2013-06-09 18:39:00,
2013-06-09 13:44:00,74.9,65.3,29.75,South,178,11.0,13.0,72,0.00,,SCT040,0.03,1056.00,VWS V14.01,2013-06-09 18:44:00,
2013-06-09 13:49:00,74.9,66.1,29.75,SSW,204,11.0,13.0,74,0.00,,SCT040,0.03,1107.00,VWS V14.01,2013-06-09 18:49:00,
2013-06-09 13:54:00,74.2,65.0,29.75,SSW,202,10.0,17.0,73,0.00,,SCT040,0.03,1176.00,VWS V14.01,2013-06-09 18:54:00,
2013-06-09 13:59:00,75.1,65.9,29.75,SSE,168,10.0,13.0,73,0.00,,SCT040,0.03,450.00,VWS V14.01,2013-06-09 18:59:00,
2013-06-09 14:04:00,75.6,65.5,29.75,SSW,208,16.0,16.0,71,0.00,,SCT040,0.03,1215.00,VWS V14.01,2013-06-09 19:04:00,
2013-06-09 14:09:00,74.4,65.2,29.75,South,172,7.0,14.0,73,0.00,,SCT040,0.03,441.00,VWS V14.01,2013-06-09 19:09:00,
2013-06-09 14:14:00,73.5,63.5,29.75,WSW,244,11.0,14.0,71,0.00,,BKN043,0.03,186.00,VWS V14.01,2013-06-09 19:14:00,
2013-06-09 14:19:00,70.8,60.9,29.75,WSW,253,18.0,18.0,71,0.00,,BKN043,0.03,51.00,VWS V14.01,2013-06-09 19:19:00,
2013-06-09 14:24:00,68.2,60.7,29.76,WSW,240,17.0,18.0,77,0.00,,BKN043,0.03,46.00,VWS V14.01,2013-06-09 19:24:00,
2013-06-09 14:29:00,66.7,60.0,29.77,WSW,247,16.0,21.0,79,0.00,,BKN043,0.03,18.00,VWS V14.01,2013-06-09 19:29:00,
2013-06-09 14:34:00,65.5,59.9,29.77,WSW,242,11.0,14.0,82,0.00,,BKN043,0.03,23.00,VWS V14.01,2013-06-09 19:34:00,
2013-06-09 14:39:00,64.5,59.9,29.77,WSW,257,10.0,11.0,85,0.00,,BKN043,0.03,23.00,VWS V14.01,2013-06-09 19:39:00,
2013-06-09 14:44:00,63.6,60.0,29.77,WSW,244,4.0,5.0,88,0.01,,BKN043,0.04,30.00,VWS V14.01,2013-06-09 19:44:00,
2013-06-09 14:49:00,63.2,60.2,29.77,WSW,254,4.0,5.0,90,0.02,,BKN043,0.05,37.00,VWS V14.01,2013-06-09 19:49:00,
2013-06-09 14:54:00,63.0,60.3,29.76,WSW,257,0.0,2.0,91,0.02,,BKN043,0.05,53.00,VWS V14.01,2013-06-09 19:54:00,
2013-06-09 14:59:00,63.2,60.8,29.76,WSW,257,0.0,2.0,92,0.03,,BKN043,0.06,91.00,VWS V14.01,2013-06-09 19:59:00,
2013-06-09 15:04:00,63.3,60.9,29.76,WSW,257,0.0,1.0,92,0.04,,BKN043,0.07,111.00,VWS V14.01,2013-06-09 20:04:00,
2013-06-09 15:09:00,63.7,61.3,29.76,WSW,257,0.0,1.0,92,0.04,,BKN043,0.07,104.00,VWS V14.01,2013-06-09 20:09:00,
2013-06-09 15:14:00,64.1,61.7,29.75,WSW,257,2.0,2.0,92,0.06,,SCT075,0.09,100.00,VWS V14.01,2013-06-09 20:14:00,
2013-06-09 15:19:00,64.3,61.9,29.75,WSW,251,2.0,3.0,92,0.08,,SCT075,0.11,130.00,VWS V14.01,2013-06-09 20:19:00,
2013-06-09 15:24:00,64.7,62.6,29.74,SW,223,5.0,5.0,93,0.10,,SCT075,0.13,167.00,VWS V14.01,2013-06-09 20:24:00,
2013-06-09 15:30:00,64.7,62.6,29.74,SW,219,5.0,5.0,93,0.12,,SCT075,0.15,290.00,VWS V14.01,2013-06-09 20:30:00,
2013-06-09 15:35:00,65.4,63.3,29.73,SW,216,6.0,7.0,93,0.14,,SCT075,0.17,420.00,VWS V14.01,2013-06-09 20:35:00,
2013-06-09 15:40:00,67.5,65.7,29.73,SW,221,10.0,10.0,94,0.16,,SCT075,0.19,1009.00,VWS V14.01,2013-06-09 20:40:00,
2013-06-09 15:45:00,68.7,66.3,29.73,SSW,212,10.0,12.0,92,0.17,,SCT075,0.20,1071.00,VWS V14.01,2013-06-09 20:45:00,
2013-06-09 15:50:00,69.9,66.5,29.73,SW,234,6.0,10.0,89,0.17,,SCT075,0.21,512.00,VWS V14.01,2013-06-09 20:50:00,
2013-06-09 15:55:00,70.0,66.3,29.73,SW,234,6.0,12.0,88,0.17,,SCT075,0.22,928.00,VWS V14.01,2013-06-09 20:55:00,
2013-06-09 16:00:00,70.8,67.1,29.74,SSW,192,7.0,10.0,88,0.18,,SCT075,0.23,490.00,VWS V14.01,2013-06-09 21:00:00,
2013-06-09 16:05:00,70.2,66.2,29.74,South,177,9.0,10.0,87,0.17,,SCT075,0.23,589.00,VWS V14.01,2013-06-09 21:05:00,
2013-06-09 16:10:00,70.4,66.0,29.74,SW,227,9.0,17.0,86,0.16,,SCT075,0.23,353.00,VWS V14.01,2013-06-09 21:10:00,
2013-06-09 16:15:00,71.1,67.4,29.74,SSW,203,5.0,10.0,88,0.16,,RA,0.23,939.00,VWS V14.01,2013-06-09 21:15:00,
2013-06-09 16:20:00,70.3,63.8,29.74,SW,234,10.0,10.0,80,0.14,,RA,0.23,243.00,VWS V14.01,2013-06-09 21:20:00,
2013-06-09 16:25:00,69.4,63.3,29.74,West,271,7.0,11.0,81,0.11,,RA,0.23,253.00,VWS V14.01,2013-06-09 21:25:00,
2013-06-09 16:30:00,69.3,63.6,29.74,WSW,238,7.0,11.0,82,0.09,,RA,0.23,510.00,VWS V14.01,2013-06-09 21:30:00,
2013-06-09 16:35:00,69.4,63.0,29.74,West,269,3.0,7.0,80,0.07,,RA,0.23,251.00,VWS V14.01,2013-06-09 21:35:00,
2013-06-09 16:40:00,69.2,63.5,29.74,WSW,251,6.0,10.0,82,0.05,,RA,0.23,185.00,VWS V14.01,2013-06-09 21:40:00,
2013-06-09 16:45:00,68.8,62.7,29.74,WSW,246,9.0,11.0,81,0.04,,RA,0.23,81.00,VWS V14.01,2013-06-09 21:45:00,
2013-06-09 16:50:00,68.1,62.1,29.74,WSW,248,9.0,14.0,81,0.02,,RA,0.23,120.00,VWS V14.01,2013-06-09 21:50:00,
2013-06-09 16:55:00,67.8,61.8,29.74,WSW,238,12.0,12.0,81,0.02,,RA,0.23,202.00,VWS V14.01,2013-06-09 21:55:00,
2013-06-09 17:00:00,67.9,62.2,29.74,WSW,243,10.0,12.0,82,0.01,,RA,0.23,213.00,VWS V14.01,2013-06-09 22:00:00,
2013-06-09 17:05:00,68.1,62.8,29.74,West,260,8.0,11.0,83,0.00,,RA,0.23,230.00,VWS V14.01,2013-06-09 22:05:00,
2013-06-09 17:10:00,68.2,62.5,29.74,WSW,237,5.0,10.0,82,0.00,,SCT100,0.23,262.00,VWS V14.01,2013-06-09 22:10:00,
2013-06-09 17:15:00,68.3,62.6,29.74,WSW,247,8.0,12.0,82,0.00,,SCT100,0.23,271.00,VWS V14.01,2013-06-09 22:15:00,
2013-06-09 17:20:00,68.1,62.1,29.74,WSW,247,12.0,13.0,81,0.00,,SCT100,0.23,204.00,VWS V14.01,2013-06-09 22:20:00,
2013-06-09 17:25:00,67.9,61.9,29.74,SW,214,11.0,15.0,81,0.00,,SCT100,0.23,214.00,VWS V14.01,2013-06-09 22:25:00,
2013-06-09 17:30:00,67.6,61.9,29.74,WSW,249,9.0,13.0,82,0.00,,SCT100,0.23,197.00,VWS V14.01,2013-06-09 22:30:00,
2013-06-09 17:35:00,67.4,61.7,29.74,WSW,241,10.0,13.0,82,0.00,,SCT100,0.23,185.00,VWS V14.01,2013-06-09 22:35:00,
2013-06-09 17:40:00,67.1,61.4,29.74,SW,229,11.0,14.0,82,0.00,,SCT100,0.23,188.00,VWS V14.01,2013-06-09 22:40:00,
2013-06-09 17:45:00,67.0,61.7,29.74,WSW,237,8.0,11.0,83,0.00,,SCT100,0.23,200.00,VWS V14.01,2013-06-09 22:45:00,
2013-06-09 17:50:00,66.8,61.5,29.74,WSW,247,11.0,13.0,83,0.00,,SCT100,0.23,192.00,VWS V14.01,2013-06-09 22:50:00,
2013-06-09 17:55:00,66.7,61.4,29.75,West,262,5.0,11.0,83,0.00,,SCT100,0.23,141.00,VWS V14.01,2013-06-09 22:55:00,
2013-06-09 18:00:00,66.5,61.5,29.75,SW,226,5.0,10.0,84,0.00,,SCT100,0.23,93.00,VWS V14.01,2013-06-09 23:00:00,
2013-06-09 18:05:00,66.2,61.6,29.75,WSW,243,9.0,12.0,85,0.00,,SCT100,0.23,81.00,VWS V14.01,2013-06-09 23:05:00,
2013-06-09 18:10:00,65.8,61.2,29.75,SSW,212,8.0,12.0,85,0.00,,BKN039,0.23,83.00,VWS V14.01,2013-06-09 23:10:00,
2013-06-09 18:15:00,65.3,61.0,29.75,SW,227,9.0,12.0,86,0.00,,BKN039,0.23,76.00,VWS V14.01,2013-06-09 23:15:00,
2013-06-09 18:20:00,64.9,60.9,29.75,SW,226,7.0,10.0,87,0.00,,BKN039,0.23,84.00,VWS V14.01,2013-06-09 23:20:00,
2013-06-09 18:25:00,64.9,60.9,29.75,WSW,241,5.0,7.0,87,0.00,,BKN039,0.23,127.00,VWS V14.01,2013-06-09 23:25:00,
2013-06-09 18:30:00,65.1,61.5,29.75,SSW,212,1.0,4.0,88,0.00,,BKN039,0.23,139.00,VWS V14.01,2013-06-09 23:30:00,
2013-06-09 18:35:00,65.3,61.7,29.75,SSW,203,3.0,6.0,88,0.00,,BKN039,0.23,149.00,VWS V14.01,2013-06-09 23:35:00,
2013-06-09 18:40:00,65.5,61.9,29.75,SW,215,5.0,5.0,88,0.00,,BKN039,0.23,121.00,VWS V14.01,2013-06-09 23:40:00,
2013-06-09 18:45:00,65.4,61.4,29.75,SW,227,4.0,5.0,87,0.00,,BKN039,0.23,86.00,VWS V14.01,2013-06-09 23:45:00,
2013-06-09 18:50:00,65.3,61.3,29.75,SW,216,2.0,4.0,87,0.00,,BKN039,0.23,70.00,VWS V14.01,2013-06-09 23:50:00,
2013-06-09 18:55:00,65.2,61.2,29.75,SSW,209,3.0,5.0,87,0.00,,BKN039,0.23,65.00,VWS V14.01,2013-06-09 23:55:00,
2013-06-09 19:00:00,65.2,61.6,29.75,SSW,210,4.0,5.0,88,0.00,,BKN039,0.23,65.00,VWS V14.01,2013-06-10 00:00:00,
2013-06-09 19:05:00,65.2,61.9,29.75,SW,217,4.0,4.0,89,0.00,,BKN039,0.23,74.00,VWS V14.01,2013-06-10 00:05:00,
2013-06-09 19:11:00,65.2,61.9,29.75,SSW,209,3.0,5.0,89,0.00,,BKN049,0.23,77.00,VWS V14.01,2013-06-10 00:11:00,
2013-06-09 19:16:00,65.1,61.8,29.75,SSW,207,4.0,5.0,89,0.00,,BKN049,0.23,77.00,VWS V14.01,2013-06-10 00:16:00,
2013-06-09 19:21:00,65.1,61.8,29.75,SSW,211,3.0,5.0,89,0.00,,SCT050,0.23,58.00,VWS V14.01,2013-06-10 00:21:00,
2013-06-09 19:26:00,65.1,61.8,29.76,SSW,210,3.0,3.0,89,0.00,,SCT050,0.23,42.00,VWS V14.01,2013-06-10 00:26:00,
2013-06-09 19:31:00,65.0,61.7,29.75,SSW,211,6.0,6.0,89,0.00,,SCT050,0.23,47.00,VWS V14.01,2013-06-10 00:31:00,
2013-06-09 19:36:00,65.0,61.7,29.75,SSW,212,3.0,4.0,89,0.00,,SCT050,0.23,54.00,VWS V14.01,2013-06-10 00:36:00,
2013-06-09 19:41:00,65.0,61.7,29.75,SSW,201,2.0,4.0,89,0.00,,CLR,0.23,51.00,VWS V14.01,2013-06-10 00:41:00,
2013-06-09 19:46:00,65.0,61.7,29.75,SSW,210,3.0,4.0,89,0.00,,CLR,0.23,49.00,VWS V14.01,2013-06-10 00:46:00,
2013-06-09 19:51:00,65.0,61.7,29.75,SSW,210,2.0,4.0,89,0.00,,CLR,0.23,46.00,VWS V14.01,2013-06-10 00:51:00,
2013-06-09 19:56:00,65.0,61.7,29.75,SSW,210,2.0,3.0,89,0.00,,CLR,0.23,40.00,VWS V14.01,2013-06-10 00:56:00,
2013-06-09 20:01:00,65.0,61.7,29.75,SSW,210,2.0,3.0,89,0.00,,CLR,0.23,30.00,VWS V14.01,2013-06-10 01:01:00,
2013-06-09 20:06:00,64.9,61.9,29.75,SSW,210,2.0,4.0,90,0.00,,CLR,0.23,19.00,VWS V14.01,2013-06-10 01:06:00,
2013-06-09 20:11:00,64.8,61.8,29.75,SSW,210,3.0,4.0,90,0.00,,CLR,0.23,16.00,VWS V14.01,2013-06-10 01:11:00,
2013-06-09 20:16:00,64.7,61.7,29.75,SSW,210,3.0,4.0,90,0.00,,CLR,0.23,14.00,VWS V14.01,2013-06-10 01:16:00,
2013-06-09 20:21:00,64.6,61.6,29.75,SSW,210,2.0,5.0,90,0.00,,CLR,0.23,12.00,VWS V14.01,2013-06-10 01:21:00,
2013-06-09 20:26:00,64.5,61.5,29.75,SSW,212,6.0,6.0,90,0.00,,CLR,0.23,11.00,VWS V14.01,2013-06-10 01:26:00,
2013-06-09 20:31:00,64.5,61.5,29.75,SW,221,4.0,5.0,90,0.00,,CLR,0.23,7.00,VWS V14.01,2013-06-10 01:31:00,
2013-06-09 20:36:00,64.5,61.5,29.75,SW,217,5.0,6.0,90,0.00,,CLR,0.23,0.00,VWS V14.01,2013-06-10 01:36:00,
2013-06-09 20:41:00,64.6,61.6,29.75,SW,216,6.0,6.0,90,0.00,,CLR,0.23,0.00,VWS V14.01,2013-06-10 01:41:00,
2013-06-09 20:46:00,64.5,61.5,29.75,WSW,239,7.0,9.0,90,0.00,,CLR,0.23,0.00,VWS V14.01,2013-06-10 01:46:00,
2013-06-09 20:51:00,64.3,61.0,29.76,West,264,4.0,6.0,89,0.00,,BKN070,0.23,0.00,VWS V14.01,2013-06-10 01:51:00,
2013-06-09 20:56:00,64.2,60.6,29.76,West,266,1.0,3.0,88,0.00,,BKN070,0.23,0.00,VWS V14.01,2013-06-10 01:56:00,
2013-06-09 21:02:00,64.0,60.4,29.76,NNW,339,3.0,4.0,88,0.00,,BKN070,0.23,0.00,VWS V14.01,2013-06-10 02:02:00,
2013-06-09 21:07:00,63.8,60.5,29.76,West,259,3.0,3.0,89,0.00,,BKN070,0.23,0.00,VWS V14.01,2013-06-10 02:07:00,
2013-06-09 21:12:00,63.5,60.2,29.76,West,262,1.0,5.0,89,0.00,,BKN070,0.23,0.00,VWS V14.01,2013-06-10 02:12:00,
2013-06-09 21:17:00,63.2,60.2,29.76,WSW,251,2.0,5.0,90,0.00,,BKN070,0.23,0.00,VWS V14.01,2013-06-10 02:17:00,
2013-06-09 21:22:00,63.0,60.3,29.76,WSW,241,4.0,6.0,91,0.00,,BKN070,0.23,0.00,VWS V14.01,2013-06-10 02:22:00,
2013-06-09 21:27:00,63.0,60.3,29.76,WSW,243,6.0,6.0,91,0.00,,BKN070,0.23,0.00,VWS V14.01,2013-06-10 02:27:00,
2013-06-09 21:32:00,63.0,60.6,29.76,WSW,245,4.0,5.0,92,0.00,,BKN070,0.23,0.00,VWS V14.01,2013-06-10 02:32:00,
2013-06-09 21:37:00,63.0,60.6,29.76,WSW,253,1.0,5.0,92,0.00,,BKN070,0.23,0.00,VWS V14.01,2013-06-10 02:37:00,
2013-06-09 21:42:00,63.0,60.6,29.77,WSW,253,1.0,4.0,92,0.01,,BKN070,0.24,0.00,VWS V14.01,2013-06-10 02:42:00,
2013-06-09 21:47:00,62.9,60.5,29.77,WSW,253,1.0,2.0,92,0.01,,BKN070,0.24,0.00,VWS V14.01,2013-06-10 02:47:00,
2013-06-09 21:52:00,62.8,60.5,29.77,WSW,253,1.0,2.0,92,0.01,,BKN055,0.24,0.00,VWS V14.01,2013-06-10 02:52:00,
2013-06-09 21:57:00,62.7,60.7,29.77,WSW,253,0.0,2.0,93,0.01,,BKN055,0.24,0.00,VWS V14.01,2013-06-10 02:57:00,
2013-06-09 22:02:00,62.5,60.5,29.78,WSW,253,0.0,0.0,93,0.01,,BKN055,0.24,0.00,VWS V14.01,2013-06-10 03:02:00,
2013-06-09 22:07:00,62.4,60.3,29.78,WSW,253,0.0,0.0,93,0.01,,BKN055,0.24,0.00,VWS V14.01,2013-06-10 03:07:00,
2013-06-09 22:12:00,62.3,60.2,29.78,WSW,253,0.0,0.0,93,0.01,,BKN055,0.24,0.00,VWS V14.01,2013-06-10 03:12:00,
2013-06-09 22:17:00,62.2,60.2,29.78,WSW,253,0.0,0.0,93,0.01,,BKN055,0.24,0.00,VWS V14.01,2013-06-10 03:17:00,
2013-06-09 22:22:00,62.1,60.1,29.78,WSW,253,0.0,0.0,93,0.01,,BKN055,0.24,0.00,VWS V14.01,2013-06-10 03:22:00,
2013-06-09 22:27:00,61.9,59.9,29.78,WSW,253,1.0,1.0,93,0.01,,BKN055,0.24,0.00,VWS V14.01,2013-06-10 03:27:00,
2013-06-09 22:32:00,61.7,59.7,29.78,WSW,253,0.0,1.0,93,0.01,,BKN055,0.24,0.00,VWS V14.01,2013-06-10 03:32:00,
2013-06-09 22:37:00,61.6,59.6,29.78,WSW,253,0.0,1.0,93,0.01,,BKN055,0.24,0.00,VWS V14.01,2013-06-10 03:37:00,
2013-06-09 22:42:00,61.5,59.8,29.79,WSW,253,0.0,0.0,94,0.00,,BKN055,0.24,0.00,VWS V14.01,2013-06-10 03:42:00,
2013-06-09 22:47:00,61.5,59.8,29.79,WSW,253,2.0,2.0,94,0.00,,BKN055,0.24,0.00,VWS V14.01,2013-06-10 03:47:00,
2013-06-09 22:52:00,61.5,59.8,29.78,WSW,253,0.0,2.0,94,0.00,,SCT023,0.24,0.00,VWS V14.01,2013-06-10 03:52:00,
2013-06-09 22:57:00,61.4,59.7,29.79,WSW,253,0.0,2.0,94,0.00,,SCT023,0.24,0.00,VWS V14.01,2013-06-10 03:57:00,
2013-06-09 23:01:00,61.4,59.7,29.79,WSW,253,0.0,1.0,94,0.00,,SCT023,0.24,0.00,VWS V14.01,2013-06-10 04:01:00,
2013-06-09 23:02:00,61.4,59.7,29.79,WSW,253,0.0,0.0,94,0.00,,SCT023,0.24,0.00,VWS V14.01,2013-06-10 04:02:00,
2013-06-09 23:07:00,61.3,59.6,29.79,WSW,253,0.0,0.0,94,0.00,,SCT023,0.24,0.00,VWS V14.01,2013-06-10 04:07:00,
2013-06-09 23:12:00,61.3,59.6,29.79,WSW,253,0.0,0.0,94,0.00,,SCT023,0.24,0.00,VWS V14.01,2013-06-10 04:12:00,
2013-06-09 23:17:00,61.4,59.7,29.79,WSW,253,0.0,0.0,94,0.00,,SCT023,0.24,0.00,VWS V14.01,2013-06-10 04:17:00,
2013-06-09 23:22:00,61.1,59.4,29.79,WSW,253,0.0,1.0,94,0.00,,SCT023,0.24,0.00,VWS V14.01,2013-06-10 04:22:00,
2013-06-09 23:27:00,61.1,59.4,29.79,WSW,253,0.0,1.0,94,0.00,,SCT023,0.24,0.00,VWS V14.01,2013-06-10 04:27:00,
2013-06-09 23:32:00,61.0,59.3,29.79,WSW,253,0.0,0.0,94,0.00,,SCT023,0.24,0.00,VWS V14.01,2013-06-10 04:32:00,
2013-06-09 23:37:00,61.0,59.6,29.79,WSW,253,0.0,1.0,95,0.00,,SCT023,0.24,0.00,VWS V14.01,2013-06-10 04:37:00,
2013-06-09 23:42:00,60.9,59.5,29.78,WSW,253,0.0,0.0,95,0.00,,SCT023,0.24,0.00,VWS V14.01,2013-06-10 04:42:00,
2013-06-09 23:47:00,60.9,59.5,29.78,WSW,253,0.0,0.0,95,0.00,,SCT023,0.24,0.00,VWS V14.01,2013-06-10 04:47:00,
2013-06-09 23:52:00,60.7,59.0,29.79,WSW,253,2.0,3.0,94,0.00,,CLR,0.24,0.00,VWS V14.01,2013-06-10 04:52:00,
2013-06-09 23:57:00,60.5,58.8,29.79,WSW,253,0.0,1.0,94,0.00,,CLR,0.24,0.00,VWS V14.01,2013-06-10 04:57:00,